User: anonymous   Login
Location: Bowman Observatory
(41.0326°N, 73.6210°W)
Time: 15:26:50
(UTC-04:00)
Language:

Cosmos 2298 Rocket - Orbit

View from above orbital plane
View from above orbital plane
View from above satellite
View from above satellite

Ground track
Ground track

The orbit data is extracted from the following two-line orbital elements,

1 23432U 94083B   15212.32275365  .00000042  00000-0  24558-4 0  9996
2 23432 074.0330 113.9479 0004624 137.3347 354.7517 14.33397609 77888
Epoch (UTC): 31 July 2015 07:44:45
Eccentricity: 0.0004624
inclination: 74.0330°
perigee height: 777 km
apogee height: 784 km
right ascension of ascending node: 113.9479°
argument of perigee: 137.3347°
revolutions per day: 14.33397609
mean anomaly at epoch: 354.7517°
orbit number at epoch: 7788

The dashed part of the orbit path shows where the satellite is in the earth's shadow,  

DLR